Regional Weather Roundup
Issued by NWS Austin/San Antonio, TX

Home | Current Version | Previous Version | Text Only | Print | Product List | Glossary On
Versions: 1 2 3 4 5 6 7 8 9 10 11 12 13 14 15 16 17 18 19 20 21 22 23 24 25 26 27 28 29 30 31 32 33 34 35 36 37 38 39 40 41 42 43 44 45 46 47 48 49 50
786
ASUS44 KEWX 210102
RWREWX
SOUTH TEXAS REGIONAL WEATHER ROUNDUP
NATIONAL WEATHER SERVICE AUSTIN/SAN ANTONIO TX
800 PM CDT SAT APR 20 2019

NOTE: "FAIR" INDICATED FEW OR NO CLOUDS BELOW 12,000 FEET WITH NO
SIGNIFICANT WEATHER AND/OR OBSTRUCTIONS TO VISIBILITY.

* - THESE STATIONS ARE NOT NWS OR FAA STATIONS...AND ARE NOT SUBJECT
    TO NWS AND FAA QUALITY CONTROL.

TXZ171-172-183>190-210200-
TEXAS HILL COUNTRY AND EDWARDS PLATEAU

CITY           SKY/WX    TMP DP  RH WIND       PRES   REMARKS
JUNCTION       CLEAR     79  47  32 S13       29.93S
*LLANO         CLEAR     79  52  38 SE5       29.96S
BURNET         CLEAR     78  50  37 S5        29.97S
*HORSESHOE BAY CLEAR     77  50  39 S5        29.95S
*KERRVILLE     CLEAR     74  51  45 S9        29.97S
*FREDERICKSBRG CLEAR     75  45  34 S7        29.97S
*ROCKSPRINGS     N/A     73  48  40 SE12G18   30.00F
*BOERNE STAGE  CLEAR     73  48  40 S7        29.99S
*CASTROVILLE   CLEAR     79  48  33 SE7       29.97S
HONDO          CLEAR     77  54  44 SE9       29.94F
*UVALDE        CLEAR     77  53  42 E8        29.93S
DEL RIO        CLEAR     84  49  29 E15       29.86S
LAUGHLIN AFB   CLEAR     81  51  34 E12       29.87S
CARRIZO SPRGS  PTCLDY    82  50  32 SE9       29.88S
*FAITH RANCH   CLEAR     86  50  28 SE9       29.88F
$$

TXZ173-191>194-202-209-217>225-228-210200-
CENTRAL AND SOUTH CENTRAL TEXAS

CITY           SKY/WX    TMP DP  RH WIND       PRES   REMARKS
GEORGETOWN     CLEAR     74  54  49 SE6       29.97S
AUSTIN/BERGSTM PTCLDY    75  55  49 S7        29.95S
AUSTIN/MABRY   CLEAR     75  52  44 S3        29.96S
*AUSTIN/EXEC   CLEAR     72  54  53 CALM      29.96S
*LAGO VISTA    CLEAR     73  52  46 SE8       29.97S
SAN MARCOS     CLEAR     73  56  54 S8        29.97S
NEW BRAUNFELS  CLEAR     73  54  51 S9        29.95S
RANDOLPH AFB   CLEAR     70  57  65 SE7       29.96S
PT SAN ANTONIO CLEAR     76  54  46 SE10      29.94S
SAN ANTONIO    PTCLDY    74  53  48 SE13      29.97S
STINSON FIELD  CLEAR     76  50  40 SE7       29.94S
*LA GRANGE     CLEAR     71  59  64 CALM      29.95F
*GIDDINGS      CLEAR     75  56  51 SE3       29.97F
*GONZALES      CLEAR     76  56  50 SE6       29.96F
$$

TXZ163>164-176>182-195>201-210>213-226-227-235-210200-
SOUTHEAST TEXAS

CITY           SKY/WX    TMP DP  RH WIND       PRES   REMARKS
COLLEGE STN    CLEAR     70  54  56 SE6       29.97F
*BRYAN         CLEAR     72  51  47 S5        29.99S
*CALDWELL      CLEAR     71  54  55 SE6       29.97F
*CROCKETT        N/A     68  52  56 CALM      30.01F
*BRENHAM       CLEAR     75  49  40 S3        29.99S
HUNTSVILLE     CLEAR     69  52  54 CALM      29.99S
CONROE         CLEAR     66  55  67 CALM      30.00S
HOUSTON BUSH   PTCLDY    70  49  47 CALM      29.99S
HOUSTON HOBBY  FAIR      71  49  45 S12       29.99S
*HOUSTON SW AP FAIR      68  51  54 SE5       30.01S
PEARLAND       FAIR      70  51  51 S5        30.02S
HOUSTON HOOKS  FAIR      69  51  52 CALM      29.99F
ELLINGTON FLD  NOT AVBL
SUGAR LAND     FAIR      66  54  65 CALM      29.99S
*HOUSTON EXEC  FAIR      68  54  60 S6        30.00S
*CLEVELAND MUN FAIR      67  58  74 CALM      30.00S
*WHARTON       CLEAR     70  49  48 S8        30.01R
*COLUMBUS      FAIR      77  49  36 CALM      29.99S
*EAGLE LAKE    CLEAR     74  53  47 SE3       29.98
$$

TXZ214>216-236>238-210200-
THE UPPER TEXAS COAST

CITY           SKY/WX    TMP DP  RH WIND       PRES   REMARKS
*ORANGE        FAIR      64  54  70 SW7       30.03S
PORT ARTHUR    FAIR      66  49  54 S9        30.01S
GALVESTON      FAIR      66  52  60 S9        30.03S
ANGLETON       FAIR      65  50  58 S9        30.02S
*BAY CITY      CLEAR     68  52  57 S6        30.02R
PALACIOS       CLEAR     70  57  63 S9        30.02S
$$

TXZ229>234-239>247-210200-
TEXAS COASTAL BEND AND RIO GRANDE PLAINS

CITY           SKY/WX    TMP DP  RH WIND       PRES   REMARKS
VICTORIA       CLEAR     70  56  61 SE13      30.00R
*BEEVILLE      CLEAR     73  51  47 SE8       29.99R
ROCKPORT       CLEAR     70  58  65 SE10      30.00S
*PORT ARANSAS  CLEAR     71  60  68 SE13      30.01F
*PORT LAVACA   CLEAR     71  59  67 S9        30.02R
*INGLESIDE     CLEAR     72  59  64 S12       29.99F
CORPUS CHRISTI MOCLDY    71  58  63 SE14      29.99S
CORPUS NAS     CLEAR     74  62  66 S12G21    29.99F
*ROBSTOWN      NOT AVBL
ALICE          PTCLDY    72  55  55 SE15      29.97R
KINGSVILLE NAS CLEAR     73  56  54 SE14G20   29.97S
COTULLA        PTCLDY    79  52  38 SE13      29.91F
LAREDO         PTCLDY    85  55  35 SE21      29.89S
$$

TXZ248>255-210200-
DEEP SOUTH TEXAS

CITY           SKY/WX    TMP DP  RH WIND       PRES   REMARKS
BROWNSVILLE    FAIR      74  62  66 SE15G21   30.00S
PORT ISABEL    FAIR      73  59  61 SE15      29.99S
HARLINGEN      CLEAR     74  55  51 SE14      29.98S
*HEBBRONVILLE  CLEAR     81  54  39 SE14G21   29.95S HAZE
MCALLEN        CLEAR     78  55  44 SE17      29.97S
*WESLACO       CLOUDY    77  54  44 SE12G21   29.97
FALFURRIAS     PTCLDY    78  55  44 E12       29.96R
EDINBURG       FAIR      80  52  38 SE13G20   29.97S
*ZAPATA        FAIR      84  50  30 SE14G22   29.92S
$$

TXZ213>215-236>238-242>244-246-247-251-254-255-210200-
CMAN STATIONS

STATION/POSITION TIME  TEMP    WIND        PRES    WAVE
                       AIR SEA DIR/SP/G            HT/PER
                 (UTC) (F)     (DEG/KT/KT) (MB)    (FT/S)
SABINE PASS      0030   66 72  200/  5/  8 1018.3
SEA RIM ST PARK  0000   68     220/ 11/ 14 1016.7
NORTH JETTY/GLS  0024   69 70  180/ 12/ 14 1016.2
EAGLE POINT      0024   70 72  190/ 10/ 11 1016.4
MORGANS POINT    0030   70 70  160/  8/ 11 1016.1
PORT O`CONNOR    0024   70 71  160/ 13/ 16 1016.1
PORT ARANSAS     0000   71 74  140/ 15/ 16 1016.0
MALAQUITE BEACH  0024   72 75  130/ 16/ 19 1015.1
BAFFIN BAY       0024   72 77  140/ 16/ 20 1015.6
PORT ISABEL      0024   74 76  140/ 13/ 18 1016.2
$$




USA.gov is the U.S. government's official web portal to all federal, state and local government web resources and services.